C/2022 T1 ( Lemmon )

Japanese version
Home page
Updated on June 5, 2024

---------------------------------------------------------------------

* Profile

Discovery Date October 3, 2022
Magnitude 21.2 mag
Discoverer Mt. Lemmon Survey

* Pictures

* Orbital Elements

Epoch 2024 Mar. 31.0 TT = JDT 2460400.5
T 2024 Feb. 17.46665 TT                                 Rudenko
q   3.4449045            (2000.0)            P               Q
z  +0.0000081      Peri.  324.30797     -0.89480078     +0.31005531
 +/-0.0000039      Node   236.91856     -0.26553082     -0.94801613
e   0.9999720      Incl.   22.54401     -0.35892193     -0.07163181
>From 409 observations 2022 Oct. 3-2024 Mar. 18, mean residual 0".5.

* Finding Charts

* Magnitudes Graph

        m1 = 9.0 + 5 log d + 10.0 log r(t + 100)

---------------------------------------------------------------------

The orbital elements are published on M.P.E.C. 2024-F34.
The charts are made with StellaNavigator Ver.10 (AstroArts).
The magnitudes graphs are made with Comet for Windows.

---------------------------------------------------------------------

Copyright(C) Seiichi Yoshida (comet@aerith.net). All rights reserved.